Time,TemperatureF,DewpointF,PressureIn,WindDirection,WindDirectionDegrees,WindSpeedMPH,WindSpeedGustMPH,Humidity,HourlyPrecipIn,Conditions,Clouds,dailyrainin,SoftwareType,DateUTC
2013-07-06 00:12:00,73.0,-99.9,-100.00,SSW,210,1.0,-999.0,-999,0.00,,,0.00,,2013-07-06 05:12:00,
2013-07-06 00:22:00,73.0,-99.9,-100.00,SSW,210,1.0,-999.0,-999,0.00,,,0.00,,2013-07-06 05:22:00,
2013-07-06 01:12:00,72.0,-99.9,-100.00,SW,236,1.0,-999.0,-999,0.00,,,0.00,,2013-07-06 06:12:00,
2013-07-06 01:22:00,72.0,-99.9,-100.00,SW,236,1.0,-999.0,-999,0.00,,,0.00,,2013-07-06 06:22:00,
2013-07-06 01:43:00,70.0,-99.9,-100.00,WSW,249,0.0,-999.0,-999,0.00,,,0.00,,2013-07-06 06:43:00,
2013-07-06 01:53:00,70.0,-99.9,-100.00,WSW,249,0.0,-999.0,-999,0.00,,,0.00,,2013-07-06 06:53:00,
2013-07-06 02:12:00,70.0,-99.9,-100.00,WSW,237,2.0,-999.0,-999,0.00,,,0.00,,2013-07-06 07:12:00,
2013-07-06 02:22:00,70.0,-99.9,-100.00,WSW,237,2.0,-999.0,-999,0.00,,,0.00,,2013-07-06 07:22:00,
2013-07-06 02:44:00,69.0,-99.9,-100.00,SW,226,1.0,-999.0,-999,0.00,,,0.00,,2013-07-06 07:44:00,
2013-07-06 02:52:00,69.0,-99.9,-100.00,SW,226,1.0,-999.0,-999,0.00,,,0.00,,2013-07-06 07:52:00,
2013-07-06 03:12:00,69.0,-99.9,-100.00,SSE,164,1.0,-999.0,-999,0.00,,,0.00,,2013-07-06 08:12:00,
2013-07-06 03:22:00,69.0,-99.9,-100.00,SSE,164,1.0,-999.0,-999,0.00,,,0.00,,2013-07-06 08:22:00,
2013-07-06 03:43:00,68.0,-99.9,-100.00,SW,218,2.0,-999.0,-999,0.00,,,0.00,,2013-07-06 08:43:00,
2013-07-06 03:54:00,68.0,-99.9,-100.00,SW,218,2.0,-999.0,-999,0.00,,,0.00,,2013-07-06 08:54:00,
2013-07-06 04:11:00,68.0,-99.9,-100.00,SW,226,1.0,-999.0,-999,0.00,,,0.00,,2013-07-06 09:11:00,
2013-07-06 04:22:00,68.0,-99.9,-100.00,SW,226,1.0,-999.0,-999,0.00,,,0.00,,2013-07-06 09:22:00,
2013-07-06 04:43:00,67.0,-99.9,-100.00,SW,236,2.0,-999.0,-999,0.00,,,0.00,,2013-07-06 09:43:00,
2013-07-06 04:53:00,67.0,-99.9,-100.00,SW,236,2.0,-999.0,-999,0.00,,,0.00,,2013-07-06 09:53:00,
2013-07-06 05:12:00,67.0,-99.9,-100.00,SW,224,2.0,-999.0,-999,0.00,,,0.00,,2013-07-06 10:12:00,
2013-07-06 05:22:00,67.0,-99.9,-100.00,SW,224,2.0,-999.0,-999,0.00,,,0.00,,2013-07-06 10:22:00,
2013-07-06 05:43:00,68.0,-99.9,-100.00,SSW,206,2.0,-999.0,-999,0.00,,,0.00,,2013-07-06 10:43:00,
2013-07-06 05:53:00,68.0,-99.9,-100.00,SSW,206,2.0,-999.0,-999,0.00,,,0.00,,2013-07-06 10:53:00,
2013-07-06 06:11:00,68.0,-99.9,-100.00,South,187,2.0,-999.0,-999,0.00,,,0.00,,2013-07-06 11:11:00,
2013-07-06 06:22:00,68.0,-99.9,-100.00,South,187,2.0,-999.0,-999,0.00,,,0.00,,2013-07-06 11:22:00,
2013-07-06 06:43:00,67.0,-99.9,-100.00,SW,220,1.0,-999.0,-999,0.00,,,0.00,,2013-07-06 11:43:00,
2013-07-06 06:53:00,67.0,-99.9,-100.00,SW,220,1.0,-999.0,-999,0.00,,,0.00,,2013-07-06 11:53:00,
2013-07-06 07:12:00,68.0,-99.9,-100.00,SSW,200,2.0,-999.0,-999,0.00,,,0.00,,2013-07-06 12:12:00,
2013-07-06 07:22:00,68.0,-99.9,-100.00,SSW,200,2.0,-999.0,-999,0.00,,,0.00,,2013-07-06 12:22:00,
2013-07-06 07:30:00,71.0,-99.9,-100.00,ESE,120,5.0,-999.0,-999,0.00,,,0.00,,2013-07-06 12:30:00,
2013-07-06 07:43:00,70.0,-99.9,-100.00,SE,144,3.0,-999.0,-999,0.00,,,0.00,,2013-07-06 12:43:00,
2013-07-06 07:52:00,70.0,-99.9,-100.00,SE,144,3.0,-999.0,-999,0.00,,,0.00,,2013-07-06 12:52:00,
2013-07-06 08:12:00,71.0,-99.9,-100.00,ESE,120,5.0,-999.0,-999,0.00,,,0.00,,2013-07-06 13:12:00,
2013-07-06 08:22:00,71.0,-99.9,-100.00,ESE,120,5.0,-999.0,-999,0.00,,,0.00,,2013-07-06 13:22:00,
2013-07-06 08:30:00,75.0,-99.9,-100.00,SE,139,6.0,-999.0,-999,0.00,,,0.00,,2013-07-06 13:30:00,
2013-07-06 09:12:00,75.0,-99.9,-100.00,SE,139,6.0,-999.0,-999,0.00,,,0.00,,2013-07-06 14:12:00,
2013-07-06 09:22:00,75.0,-99.9,-100.00,SE,139,6.0,-999.0,-999,0.00,,,0.00,,2013-07-06 14:22:00,
2013-07-06 10:12:00,77.0,-99.9,-100.00,SE,127,6.0,-999.0,-999,0.00,,,0.00,,2013-07-06 15:12:00,
2013-07-06 10:22:00,77.0,-99.9,-100.00,SE,127,6.0,-999.0,-999,0.00,,,0.00,,2013-07-06 15:22:00,
2013-07-06 10:43:00,77.0,-99.9,-100.00,ESE,119,6.0,-999.0,-999,0.00,,,0.00,,2013-07-06 15:43:00,
2013-07-06 10:53:00,77.0,-99.9,-100.00,ESE,119,6.0,-999.0,-999,0.00,,,0.00,,2013-07-06 15:53:00,
2013-07-06 11:17:00,79.0,-99.9,-100.00,ESE,105,4.0,-999.0,-999,0.00,,,0.00,,2013-07-06 16:17:00,
2013-07-06 11:30:00,83.0,-99.9,-100.00,SE,135,5.0,-999.0,-999,0.00,,,0.00,,2013-07-06 16:30:00,
2013-07-06 12:00:00,82.0,-99.9,-100.00,ESE,122,7.0,-999.0,-999,0.00,,,0.00,,2013-07-06 17:00:00,
2013-07-06 12:28:00,83.0,-99.9,-100.00,SE,135,5.0,-999.0,-999,0.00,,,0.00,,2013-07-06 17:28:00,
2013-07-06 13:00:00,82.0,-99.9,-100.00,ESE,118,7.0,-999.0,-999,0.00,,,0.00,,2013-07-06 18:00:00,
2013-07-06 13:29:00,82.0,-99.9,-100.00,ESE,119,7.0,-999.0,-999,0.00,,,0.00,,2013-07-06 18:29:00,
2013-07-06 14:00:00,82.0,-99.9,-100.00,ESE,123,7.0,-999.0,-999,0.00,,,0.00,,2013-07-06 19:00:00,
2013-07-06 14:30:00,83.0,-99.9,-100.00,SE,125,7.0,-999.0,-999,0.00,,,0.00,,2013-07-06 19:30:00,
2013-07-06 15:30:00,84.0,-99.9,-100.00,ESE,119,7.0,-999.0,-999,0.00,,,0.00,,2013-07-06 20:30:00,
2013-07-06 17:00:00,85.0,-99.9,-100.00,SE,129,8.0,-999.0,-999,0.00,,,0.00,,2013-07-06 22:00:00,
2013-07-06 17:30:00,86.0,-99.9,-100.00,SE,145,5.0,-999.0,-999,0.00,,,0.00,,2013-07-06 22:30:00,
2013-07-06 18:30:00,85.0,-99.9,-100.00,SE,133,7.0,-999.0,-999,0.00,,,0.00,,2013-07-06 23:30:00,
2013-07-06 20:00:00,81.0,-99.9,-100.00,SE,127,5.0,-999.0,-999,0.00,,,0.00,,2013-07-07 01:00:00,
2013-07-06 21:19:00,79.0,-99.9,-100.00,South,172,2.0,-999.0,-999,0.00,,,0.00,,2013-07-07 02:19:00,
2013-07-06 21:30:00,77.0,-99.9,-100.00,SE,131,2.0,-999.0,-999,0.00,,,0.00,,2013-07-07 02:30:00,
2013-07-06 21:58:00,77.0,-99.9,-100.00,SSE,149,1.0,-999.0,-999,0.00,,,0.00,,2013-07-07 02:58:00,
2013-07-06 22:00:00,77.0,-99.9,-100.00,SE,133,4.0,-999.0,-999,0.00,,,0.00,,2013-07-07 03:00:00,
2013-07-06 22:24:00,77.0,-99.9,-100.00,SE,131,2.0,-999.0,-999,0.00,,,0.00,,2013-07-07 03:24:00,
2013-07-06 23:02:00,76.0,-99.9,-100.00,SE,124,4.0,-999.0,-999,0.00,,,0.00,,2013-07-07 04:02:00,
2013-07-06 23:11:00,76.0,-99.9,-100.00,SE,124,4.0,-999.0,-999,0.00,,,0.00,,2013-07-07 04:11:00,
2013-07-06 23:21:00,76.0,-99.9,-100.00,SE,124,4.0,-999.0,-999,0.00,,,0.00,,2013-07-07 04:21:00,
2013-07-06 23:30:00,75.0,-99.9,-100.00,SE,131,2.0,-999.0,-999,0.00,,,0.00,,2013-07-07 04:30:00,
2013-07-06 23:42:00,76.0,-99.9,-100.00,ESE,118,5.0,-999.0,-999,0.00,,,0.00,,2013-07-07 04:42:00,
2013-07-06 23:52:00,76.0,-99.9,-100.00,ESE,118,5.0,-999.0,-999,0.00,,,0.00,,2013-07-07 04:52:00,